Home > Weather > Höxter > Past weeks

Flag for Germany Past Weather in Höxter, North Rhine-Westphalia, Germany — Yesterday and Last 2 Weeks

Now
66 °F

Light rain. Partly sunny.


Feels Like: 66 °F
Forecast: 61 / 74 °F
Wind: 3 mph from Southwest

Location: Kassel / Calden

Current Time: Jul 28, 2016 at 8:20:46 PM

Latest Report: Jul 28, 2016 at 7:50 PM


Visibility: N/A

Pressure: 29.95 "Hg

Humidity: 100%

Dew Point: 66 °F

Location of HöxterLocation

Past Weather in Höxter — Graph

°F

Höxter Temperature Yesterday

Maximum temperature yesterday: 75 °F (at 2:20 PM)
Minimum temperature yesterday: 61 °F (at 7:20 AM)
Average temperature yesterday: 70 °F

High & Low Weather Summary for the Past Weeks

 TemperatureHumidityPressure
High90 °F (Jul 20, 4:50 PM)100% (Jul 13, 6:50 PM)30.27 "Hg (Jul 13, 6:50 PM)
Low52 °F (Jul 14, 7:20 AM)31% (Jul 20, 2:50 PM)29.92 "Hg (Jul 13, 6:50 PM)
Average70 °F69%30.10 "Hg
* Reported Jul 13 6:50 PM — Jul 28 6:50 PM, Höxter, Weather by CustomWeather, © 2016

Note: Actual official high and low records may vary slightly from our data, if they occured in-between our weather recording intervals... More about our weather records

Advertising

Höxter Weather History for the Previous 24 Hours

Scroll right to see more
 ConditionsComfort  
Time TempWeatherWind HumidityBarometerVisibility
6:50 PM
Thu, Jul 28
66 °FLight rain. Broken clouds.3 mph100%29.95 "HgN/A
6:20 PM68 °FBroken clouds.2 mph94%29.95 "HgN/A
5:50 PM68 °FPartly sunny.2 mph83%29.98 "HgN/A
5:20 PM70 °FPartly sunny.3 mph83%29.98 "HgN/A
4:50 PM68 °FLight rain. Broken clouds.3 mph83%29.98 "HgN/A
4:20 PM68 °FPartly sunny.2 mph78%30.01 "HgN/A
3:50 PM68 °FBroken clouds.5 mph83%30.01 "HgN/A
3:20 PM66 °FScattered showers. Broken clouds.8 mph94%30.01 "HgN/A
2:54 PM64 °FThundershowers. Broken clouds.10 mph100%30.01 "Hg6 mi
2:50 PM64 °FLight rain. Broken clouds.13 mph100%30.01 "HgN/A
2:20 PM72 °FScattered showers. Broken clouds.10 mph61%30.01 "HgN/A
1:50 PM70 °FBroken clouds.10 mph69%30.01 "HgN/A
1:20 PM70 °FBroken clouds.9 mph64%30.01 "HgN/A
12:50 PM70 °FBroken clouds.10 mph64%30.01 "HgN/A
12:20 PM72 °FPartly sunny.9 mph65%30.01 "HgN/A
11:50 AM70 °FBroken clouds.9 mph69%30.04 "HgN/A
11:20 AM68 °FBroken clouds.7 mph73%30.04 "HgN/A
10:50 AM68 °FBroken clouds.7 mph73%30.04 "HgN/A
10:20 AM68 °FBroken clouds.6 mph73%30.04 "HgN/A
9:50 AM66 °FBroken clouds.6 mph73%30.04 "HgN/A
9:20 AM66 °FBroken clouds.5 mph73%30.04 "HgN/A
8:50 AM64 °FBroken clouds.2 mph83%30.04 "HgN/A
8:20 AM64 °FBroken clouds.2 mph78%30.04 "HgN/A
7:50 AM63 °FBroken clouds.5 mph88%30.04 "HgN/A
7:20 AM63 °FBroken clouds.7 mph88%30.01 "HgN/A
9:20 PM
Wed, Jul 27
66 °FSunny.6 mph64%30.04 "Hg10 mi
8:50 PM68 °FSunny.5 mph60%30.01 "Hg10 mi
8:20 PM70 °FPassing clouds.9 mph57%30.01 "HgN/A
Weather by CustomWeather, © 2016

See weather overviewHow to use our weather pages